Starlink 32762

operational
NORAD ID: 62748 Int'l Des: 2025-014 Owner: SPXS Country: US Constellation: starlink
LEOCIRCULAR

Starlink 32762について

説明を読み込み中...

リアルタイム位置

3D地球を読み込み中...

次回通過

高度履歴

Altitude vs Time

uPlot chart will show altitude changes over time

軌道要素

1 62748U 25014P 25305.62345310 .00032133 00000-0 11714-2 0 9996
2 62748 42.9951 160.8991 0000391 309.3180 50.7637 15.27600041 43630
Epoch: Nov 1, 2025 • Age: 18 hours

現在のステータス

高度 484.2 km
速度 7.63 km/s
衛星直下点 32.78°N, 119.72°E
打ち上げ日 Jan 21, 2025
運用期間 0.7 years
タイプ internet

技術仕様

分類 Payload
質量 730.00 kg
乾燥質量 700.00 kg
総質量 730.00 kg
長さ 0.30 m
直径 4.10 m
スパン 29.00 m
形状 Box + pan
製造者 SPXS
バスタイプ Starlink V2M
フェーズステータス In Orbit
所有者/国 SPXS/US

大規模コンステレーション

Loading constellations...